Diboll, TX

4:20 PM CDT on September 24, 2016 (GMT -0500)
Angelina County

Weather History for KLFK - September, 2013

Change the Weather History Date:

Saturday, September 21, 2013

  Actual Average Record
Temperature  
Mean Temperature 76 °F 76 °F  
Max Temperature 84 °F 87 °F 104 °F (2005)
Min Temperature 67 °F 64 °F 45 °F (1913)
Degree Days  
Heating Degree Days 0 0  
Month to date heating degree days 0 0  
Since 1 July heating degree days 0 0  
Cooling Degree Days 11 11  
Month to date cooling degree days 363 289  
Year to date cooling degree days 2530 2312  
Growing Degree Days 26 (Base 50)    
Moisture  
Dew Point 66 °F    
Average Humidity 76    
Maximum Humidity 100    
Minimum Humidity 51    
Precipitation  
Precipitation 0.01 in 0.12 in 3.39 in (1995)
Month to date precipitation 3.60 2.93  
Year to date precipitation 29.50 33.52  
Snow  
Snow 0.00 in - - ()
Month to date snowfall 0.0  
Since 1 July snowfall 0.0  
Since 1 September snowfall 0.0  
Snow Depth 0.00 in    
Sea Level Pressure  
Sea Level Pressure 29.83 in    
Wind  
Wind Speed 8 mph (NNE)    
Max Wind Speed 18 mph    
Max Gust Speed 24 mph    
Visibility 10 miles    
Events Rain    
T = Trace of Precipitation, MM = Missing Value Source: NWS Daily Summary

Daily Weather History Graph

Daily Weather History Graph

Search for Another Location

Airport or City:

Trip Planner

Search our weather history database for the weather conditions in past years. The results will help you decide how hot, cold, wet, or windy it might be!

Date:

Astronomy

Sep. 21, 2013 Rise Set
Actual Time 7:06 AM CDT 7:16 PM CDT
Civil Twilight 6:42 AM CDT 7:40 PM CDT
Nautical Twilight 6:14 AM CDT 8:08 PM CDT
Astronomical Twilight 5:45 AM CDT 8:37 PM CDT
Moon 8:41 PM CDT (9/21) 9:14 AM CDT (9/21)
Length of Visible Light 12h 58m
Length of Day
12h 09m
Waning Gibbous, 94% of the Moon is Illuminated
Sep 21
Waning Gibbous
Sep 26
Last Quarter
Oct 4
New
Oct 11
First Quarter
Oct 18
Full

Hourly Weather History & Observations

Time (CDT) Temp. Heat Index Dew Point Humidity Pressure Visibility Wind Dir Wind Speed Gust Speed Precip Events Conditions
12:53 AM 70.0 °F - 70.0 °F 100% 29.80 in 10.0 mi NNE 3.5 mph - 0.00 in Rain Light Rain
1:32 AM 69.8 °F - 69.8 °F 100% 29.82 in 10.0 mi North 5.8 mph - 0.00 in Rain Light Rain
1:48 AM 69.8 °F - 69.8 °F 100% 29.82 in 10.0 mi North 6.9 mph - 0.01 in Rain Light Rain
1:53 AM 70.0 °F - 69.1 °F 97% 29.81 in 10.0 mi North 8.1 mph - 0.01 in Rain Light Rain
2:01 AM 69.8 °F - 69.8 °F 100% 29.81 in 10.0 mi NNE 9.2 mph - 0.00 in Rain Light Rain
2:34 AM 69.8 °F - 69.8 °F 100% 29.82 in 10.0 mi North 8.1 mph - 0.00 in   Overcast
2:53 AM 70.0 °F - 69.1 °F 97% 29.80 in 10.0 mi North 9.2 mph - 0.00 in   Overcast
3:53 AM 70.0 °F - 69.1 °F 97% 29.80 in 10.0 mi NNE 6.9 mph - N/A   Overcast
4:53 AM 70.0 °F - 69.1 °F 97% 29.81 in 10.0 mi North 8.1 mph - 0.00 in Rain Light Rain
5:53 AM 70.0 °F - 69.1 °F 97% 29.81 in 10.0 mi North 5.8 mph - 0.00 in   Overcast
6:53 AM 69.1 °F - 69.1 °F 100% 29.82 in 10.0 mi North 8.1 mph - 0.00 in   Overcast
7:03 AM 69.8 °F - 68.0 °F 94% 29.83 in 10.0 mi North 11.5 mph - N/A   Overcast
7:10 AM 69.8 °F - 68.0 °F 94% 29.83 in 10.0 mi North 8.1 mph - 0.00 in Rain Light Rain
7:53 AM 69.1 °F - 68.0 °F 96% 29.83 in 10.0 mi NNE 12.7 mph 19.6 mph 0.00 in Rain Light Rain
8:53 AM 69.1 °F - 66.0 °F 90% 29.86 in 10.0 mi NNE 10.4 mph 19.6 mph 0.00 in   Overcast
9:53 AM 71.1 °F - 66.9 °F 87% 29.87 in 10.0 mi North 10.4 mph 17.3 mph N/A   Mostly Cloudy
10:10 AM 73.4 °F - 66.2 °F 78% 29.88 in 10.0 mi NNE 11.5 mph 19.6 mph N/A   Mostly Cloudy
10:30 AM 71.6 °F - 64.4 °F 78% 29.88 in 10.0 mi NNE 16.1 mph 24.2 mph N/A   Overcast
10:53 AM 72.0 °F - 64.9 °F 78% 29.88 in 10.0 mi NE 15.0 mph 19.6 mph N/A   Overcast
11:48 AM 75.2 °F - 64.4 °F 69% 29.88 in 10.0 mi NNE 10.4 mph 19.6 mph N/A   Overcast
11:53 AM 78.1 °F - 66.0 °F 66% 29.87 in 10.0 mi NE 11.5 mph 19.6 mph N/A   Mostly Cloudy
12:21 PM 75.2 °F - 64.4 °F 69% 29.87 in 10.0 mi NE 8.1 mph - N/A   Mostly Cloudy
12:41 PM 77.0 °F - 64.4 °F 65% 29.87 in 10.0 mi NNE 6.9 mph 20.7 mph N/A   Mostly Cloudy
12:53 PM 75.9 °F - 64.0 °F 67% 29.86 in 10.0 mi NNE 11.5 mph - N/A   Mostly Cloudy
1:53 PM 80.1 °F 81.7 °F 64.0 °F 58% 29.83 in 10.0 mi NNE 11.5 mph 17.3 mph N/A   Mostly Cloudy
2:53 PM 82.0 °F 83.4 °F 64.0 °F 54% 29.81 in 10.0 mi North 9.2 mph 19.6 mph N/A   Mostly Cloudy
3:53 PM 82.9 °F 84.0 °F 63.0 °F 51% 29.79 in 10.0 mi NE 9.2 mph 18.4 mph N/A   Mostly Cloudy
4:53 PM 82.9 °F 84.0 °F 63.0 °F 51% 29.78 in 10.0 mi NNE 10.4 mph 16.1 mph N/A   Mostly Cloudy
5:53 PM 82.9 °F 84.0 °F 63.0 °F 51% 29.78 in 10.0 mi NNE 9.2 mph - N/A   Mostly Cloudy
6:53 PM 80.1 °F 81.2 °F 62.1 °F 54% 29.79 in 10.0 mi NE 5.8 mph - N/A   Scattered Clouds
7:53 PM 75.0 °F - 64.0 °F 69% 29.81 in 10.0 mi Calm Calm - N/A   Mostly Cloudy
8:53 PM 73.0 °F - 64.0 °F 73% 29.83 in 10.0 mi NNE 4.6 mph - N/A   Clear
9:53 PM 72.0 °F - 57.9 °F 61% 29.84 in 10.0 mi NNE 5.8 mph - N/A   Clear
10:53 PM 71.1 °F - 55.0 °F 57% 29.84 in 10.0 mi NNE 6.9 mph - N/A   Clear
11:53 PM 69.1 °F - 55.0 °F 61% 29.84 in 10.0 mi NNE 5.8 mph - N/A   Clear